Location: Proctor
(47.8934°N, 114.3048°W)
Time: 20:23:29
(UTC+00:00)

Tiros 1 despin weight - Pass Details

Date: 27 June 2024
Orbit: 576 x 620 km, 48.2° (Epoch: 19 July)

Event Time Altitude Azimuth Distance (km) Brightness Sun altitude
Rises 18:29:08 0° 238° (WSW) 2,872 ? 61.6°
Reaches altitude 10° 18:31:28 10° 234° (SW) 1,974 ? 61.8°
Maximum altitude 18:35:54 55° 157° (SSE) 743 ? 62.2°
Drops below altitude 10° 18:40:23 10° 80° (E) 1,990 ? 62.6°
Sets 18:42:44 0° 76° (ENE) 2,897 ? 62.8°
